| time (UTC) | temp F | wind direction | speed MPH | gust MPH | rain 1hr in | rain 24hr in | rain mn in | humidity % | barometer mb |
| 20260503184524 | 57 | 240 | 3.0 | 8.0 | 0.00 | 0.00 | 0.00 | 72 | 1014.7 |
| 20260503184009 | 56 | 253 | 4.0 | 8.0 | 0.00 | 0.00 | 0.00 | 72 | 1014.7 |
| 20260503183509 | 56 | 175 | 1.0 | 7.0 | 0.00 | 0.00 | 0.00 | 73 | 1014.7 |
| 20260503183029 | 56 | 273 | 4.0 | 8.0 | 0.00 | 0.00 | 0.00 | 72 | 1014.8 |
| 20260503182503 | 56 | 238 | 3.0 | 8.0 | 0.00 | 0.00 | 0.00 | 74 | 1014.8 |
| 20260503182004 | 56 | 212 | 1.0 | 7.0 | 0.00 | 0.00 | 0.00 | 76 | 1014.7 |
| 20260503181512 | 56 | 223 | 2.0 | 7.0 | 0.00 | 0.00 | 0.00 | 76 | 1014.7 |
| 20260503181005 | 55 | 221 | 2.0 | 8.0 | 0.00 | 0.00 | 0.00 | 77 | 1014.7 |
| 20260503180504 | 55 | 226 | 3.0 | 8.0 | 0.00 | 0.00 | 0.00 | 77 | 1014.7 |
| 20260503180016 | 55 | 223 | 1.0 | 8.0 | 0.00 | 0.00 | 0.00 | 77 | 1014.7 |
| 20260503175504 | 55 | 252 | 4.0 | 7.0 | 0.00 | 0.00 | 0.00 | 77 | 1014.7 |
| 20260503175007 | 55 | 234 | 2.0 | 6.0 | 0.00 | 0.00 | 0.00 | 78 | 1014.6 |
| 20260503174530 | 55 | 214 | 2.0 | 6.0 | 0.00 | 0.00 | 0.00 | 80 | 1014.7 |
| 20260503174007 | 54 | 213 | 1.0 | 6.0 | 0.00 | 0.00 | 0.00 | 1014.6 | |
| 20260503173507 | 54 | 227 | 3.0 | 6.0 | 0.00 | 0.00 | 0.00 | 1014.6 | |
| 20260503173034 | 54 | 250 | 1.0 | 9.0 | 0.00 | 0.00 | 0.00 | 1014.6 | |
| 20260503172514 | 54 | 234 | 5.0 | 9.0 | 0.00 | 0.00 | 0.00 | 1014.6 | |
| 20260503172010 | 54 | 186 | 2.0 | 8.0 | 0.00 | 0.00 | 0.00 | 1014.7 | |
| 20260503171531 | 54 | 217 | 3.0 | 9.0 | 0.00 | 0.00 | 0.00 | 1014.7 | |
| 20260503171003 | 54 | 224 | 3.0 | 7.0 | 0.00 | 0.00 | 0.00 | 1014.6 | |
| 20260503170503 | 54 | 207 | 2.0 | 5.0 | 0.00 | 0.00 | 0.00 | 1014.6 | |
| 20260503151003 | 50 | 251 | 2.0 | 7.0 | 0.00 | 0.00 | 0.00 | 93 | 1014.2 |
| 20260503150505 | 50 | 267 | 1.0 | 7.0 | 0.00 | 0.00 | 0.00 | 94 | 1014.2 |
| 20260503131006 | 50 | 242 | 0.0 | 2.0 | 0.00 | 0.00 | 0.00 | 93 | 1012.8 |
| 20260503130507 | 50 | 242 | 0.0 | 2.0 | 0.00 | 0.00 | 0.00 | 93 | 1012.7 |
| 20260503110506 | 50 | 242 | 0.0 | 2.0 | 0.00 | 0.00 | 0.00 | 91 | 1012.6 |
| 20260503090503 | 51 | 230 | 2.0 | 5.0 | 0.00 | 0.00 | 0.00 | 89 | 1012.8 |
| 20260503081004 | 51 | 269 | 1.0 | 2.0 | 0.00 | 0.00 | 0.00 | 88 | 1013.0 |
| 20260503080508 | 51 | 227 | 1.0 | 3.0 | 0.00 | 0.00 | 0.00 | 88 | 1013.0 |
| 20260503072509 | 51 | 194 | 0.0 | 2.0 | 0.00 | 0.00 | 0.00 | 88 | 1013.3 |
| 20260503070502 | 51 | 148 | 0.0 | 2.0 | 0.00 | 0.00 | 0.00 | 88 | 1013.2 |
| 20260503054006 | 52 | 234 | 0.0 | 2.0 | 0.00 | 0.00 | 0.00 | 85 | 1013.5 |
| 20260503052008 | 52 | 234 | 1.0 | 3.0 | 0.00 | 0.00 | 0.00 | 85 | 1013.7 |
| 20260503051008 | 52 | 245 | 0.0 | 3.0 | 0.00 | 0.00 | 0.00 | 85 | 1013.8 |
| 20260503050509 | 52 | 245 | 0.0 | 3.0 | 0.00 | 0.00 | 0.00 | 85 | 1013.7 |
| 20260503050024 | 52 | 202 | 0.0 | 4.0 | 0.00 | 0.00 | 0.00 | 85 | 1013.7 |
| 20260503045008 | 52 | 222 | 2.0 | 4.0 | 0.00 | 0.00 | 0.00 | 85 | 1013.7 |
| 20260503044526 | 52 | 215 | 1.0 | 5.0 | 0.00 | 0.00 | 0.00 | 85 | 1013.7 |
| 20260503044005 | 52 | 237 | 2.0 | 5.0 | 0.00 | 0.00 | 0.00 | 85 | 1013.6 |
| 20260503042008 | 52 | 239 | 1.0 | 3.0 | 0.00 | 0.00 | 0.00 | 84 | 1013.6 |
| 20260503041010 | 52 | 269 | 1.0 | 6.0 | 0.00 | 0.00 | 0.00 | 84 | 1013.4 |
| 20260503035508 | 52 | 265 | 2.0 | 4.0 | 0.00 | 0.00 | 0.00 | 84 | 1013.3 |
| 20260503035007 | 52 | 286 | 1.0 | 7.0 | 0.00 | 0.00 | 0.00 | 84 | 1013.1 |
| 20260503034526 | 52 | 215 | 2.0 | 7.0 | 0.00 | 0.00 | 0.00 | 84 | 1013.0 |
| 20260503034004 | 52 | 259 | 1.0 | 5.0 | 0.00 | 0.00 | 0.00 | 84 | 1012.9 |
| 20260503033510 | 52 | 261 | 2.0 | 5.0 | 0.00 | 0.00 | 0.00 | 84 | 1012.9 |
| 20260503032011 | 52 | 254 | 1.0 | 6.0 | 0.00 | 0.00 | 0.00 | 84 | 1012.8 |
| 20260503031007 | 52 | 249 | 2.0 | 5.0 | 0.00 | 0.00 | 0.00 | 84 | 1012.8 |
| 20260503030025 | 52 | 217 | 2.0 | 7.0 | 0.00 | 0.00 | 0.00 | 84 | 1012.8 |
| 20260503024014 | 53 | 239 | 1.0 | 4.0 | 0.00 | 0.00 | 0.00 | 84 | 1012.8 |
| 20260503023508 | 53 | 255 | 2.0 | 7.0 | 0.00 | 0.00 | 0.00 | 83 | 1012.9 |
| 20260503023012 | 53 | 212 | 0.0 | 7.0 | 0.00 | 0.00 | 0.00 | 82 | 1012.8 |
| 20260503022505 | 53 | 248 | 4.0 | 7.0 | 0.00 | 0.00 | 0.00 | 82 | 1012.8 |
| 20260503020511 | 53 | 248 | 2.0 | 5.0 | 0.00 | 0.00 | 0.00 | 82 | 1012.9 |
| 20260503015007 | 53 | 199 | 3.0 | 7.0 | 0.00 | 0.00 | 0.00 | 82 | 1012.8 |
| 20260503013506 | 54 | 283 | 3.0 | 7.0 | 0.00 | 0.00 | 0.00 | 81 | 1012.9 |
| 20260503012511 | 54 | 296 | 2.0 | 10.0 | 0.00 | 0.00 | 0.00 | 81 | 1012.8 |
| 20260503011515 | 54 | 232 | 3.0 | 9.0 | 0.00 | 0.00 | 0.00 | 82 | 1012.8 |
| 20260503010506 | 54 | 221 | 4.0 | 9.0 | 0.00 | 0.00 | 0.00 | 82 | 1012.9 |
| 20260503010026 | 54 | 205 | 3.0 | 11.0 | 0.00 | 0.00 | 0.00 | 82 | 1012.9 |
| 20260503005506 | 54 | 234 | 3.0 | 11.0 | 0.00 | 0.00 | 0.00 | 82 | 1013.0 |
| 20260503004012 | 54 | 240 | 2.0 | 11.0 | 0.00 | 0.00 | 0.00 | 82 | 1012.9 |
| 20260503002508 | 55 | 218 | 4.0 | 9.0 | 0.00 | 0.00 | 0.00 | 82 | 1012.8 |
| 20260503001008 | 55 | 187 | 5.0 | 12.0 | 0.00 | 0.00 | 0.00 | 83 | 1012.9 |
| 20260503000507 | 55 | 215 | 6.0 | 12.0 | 0.00 | 0.00 | 0.00 | 82 | 1013.0 |
| 20260502235504 | 55 | 221 | 5.0 | 10.0 | 0.00 | 0.00 | 0.00 | 80 | 1013.0 |
| 20260502235007 | 55 | 212 | 4.0 | 13.0 | 0.00 | 0.00 | 0.00 | 80 | 1013.0 |
| 20260502234523 | 55 | 227 | 6.0 | 13.0 | 0.00 | 0.00 | 0.00 | 80 | 1013.0 |
| 20260502233508 | 56 | 235 | 4.0 | 9.0 | 0.00 | 0.00 | 0.00 | 80 | 1013.0 |
| 20260502232509 | 56 | 259 | 3.0 | 12.0 | 0.00 | 0.00 | 0.00 | 80 | 1013.0 |
| 20260502232010 | 56 | 251 | 6.0 | 11.0 | 0.00 | 0.00 | 0.00 | 79 | 1013.0 |
| 20260502231507 | 57 | 238 | 4.0 | 11.0 | 0.00 | 0.00 | 0.00 | 79 | 1013.0 |
| 20260502230504 | 57 | 219 | 4.0 | 8.0 | 0.00 | 0.00 | 0.00 | 78 | 1013.1 |
| 20260502230017 | 57 | 314 | 4.0 | 11.0 | 0.00 | 0.00 | 0.00 | 79 | 1013.2 |
| 20260502225008 | 57 | 208 | 6.0 | 11.0 | 0.00 | 0.00 | 0.00 | 79 | 1013.4 |
| 20260502224520 | 58 | 249 | 3.0 | 9.0 | 0.00 | 0.00 | 0.00 | 78 | 1013.6 |
| 20260502223503 | 58 | 238 | 3.0 | 7.0 | 0.00 | 0.00 | 0.00 | 78 | 1013.9 |
| 20260502221509 | 59 | 292 | 0.0 | 7.0 | 0.00 | 0.00 | 0.00 | 78 | 1014.0 |
| 20260502221004 | 59 | 5 | 2.0 | 7.0 | 0.00 | 0.00 | 0.00 | 77 | 1014.1 |
| 20260502215006 | 61 | 352 | 1.0 | 10.0 | 0.00 | 0.00 | 0.00 | 74 | 1014.2 |
| 20260502214013 | 60 | 304 | 3.0 | 11.0 | 0.00 | 0.00 | 0.00 | 75 | 1014.3 |
| 20260502213507 | 60 | 257 | 3.0 | 10.0 | 0.00 | 0.00 | 0.00 | 74 | 1014.3 |
| 20260502211506 | 59 | 323 | 3.0 | 10.0 | 0.00 | 0.00 | 0.00 | 76 | 1014.5 |
| 20260502210506 | 60 | 295 | 4.0 | 9.0 | 0.00 | 0.00 | 0.00 | 73 | 1014.6 |
| 20260502210010 | 60 | 208 | 3.0 | 8.0 | 0.00 | 0.00 | 0.00 | 75 | 1014.6 |
| 20260502205504 | 60 | 277 | 4.0 | 7.0 | 0.00 | 0.00 | 0.00 | 74 | 1014.6 |
| 20260502203021 | 61 | 210 | 1.0 | 8.0 | 0.00 | 0.00 | 0.00 | 71 | 1014.7 |
| 20260502202508 | 61 | 236 | 3.0 | 8.0 | 0.00 | 0.00 | 0.00 | 71 | 1014.9 |
| 20260502201505 | 60 | 246 | 5.0 | 8.0 | 0.00 | 0.00 | 0.00 | 71 | 1015.2 |
| 20260502195502 | 59 | 315 | 1.0 | 6.0 | 0.00 | 0.00 | 0.00 | 74 | 1015.3 |
| 20260502195008 | 59 | 182 | 2.0 | 7.0 | 0.00 | 0.00 | 0.00 | 74 | 1015.4 |
| 20260502194515 | 58 | 238 | 3.0 | 7.0 | 0.00 | 0.00 | 0.00 | 73 | 1015.5 |
| 20260502194003 | 59 | 284 | 1.0 | 6.0 | 0.00 | 0.00 | 0.00 | 75 | 1015.5 |
| 20260502193016 | 58 | 283 | 1.0 | 7.0 | 0.00 | 0.00 | 0.00 | 75 | 1015.7 |
| 20260502192009 | 57 | 217 | 4.0 | 9.0 | 0.00 | 0.00 | 0.00 | 76 | 1015.7 |
| 20260502190504 | 57 | 273 | 1.0 | 4.0 | 0.00 | 0.00 | 0.00 | 76 | 1015.9 |
| 20260502190007 | 57 | 276 | 1.0 | 6.0 | 0.00 | 0.00 | 0.00 | 75 | 1015.8 |